FW1442 Weather Reports


time (UTC)temp
C
wind
direction
speed
KPH
gust
KPH
rain 1hr
cm
rain 24hr
cm
rain mn
cm
humidity
%
barometer
mb
20260506134905 27 0.0 0.0 0.00 0.00 0.00 31 1012.2
20260506133904 27 0.0 0.0 0.00 0.00 0.00 32 1012.1
20260506132904 27 0.0 0.0 0.00 0.00 0.00 32 1012.1
20260506131905 27 0.0 0.0 0.00 0.00 0.00 32 1012.1
20260506130904 27 0.0 0.0 0.00 0.00 0.00 33 1012.0
20260506125904 27 0.0 0.0 0.00 0.00 0.00 31 1011.9
20260506124904 27 0.0 0.0 0.00 0.00 0.00 31 1012.1
20260506123904 27 0.0 0.0 0.00 0.00 0.00 31 1012.0
20260506122905 27 0.0 0.0 0.00 0.00 0.00 31 1012.1
20260506121904 27 0.0 0.0 0.00 0.00 0.00 31 1012.1
20260506120905 27 0.0 0.0 0.00 0.00 0.00 31 1012.1
20260506115904 27 0.0 0.0 0.00 0.00 0.00 30 1011.9
20260506114905 27 0.0 0.0 0.00 0.00 0.00 30 1012.0
20260506113904 27 0.0 0.0 0.00 0.00 0.00 30 1011.9
20260506112904 26 0.0 0.0 0.00 0.00 0.00 31 1012.0
20260506111905 26 0.0 0.0 0.00 0.00 0.00 30 1012.0
20260506110904 26 0.0 0.0 0.00 0.00 0.00 30 1011.9
20260506105904 26 0.0 0.0 0.00 0.00 0.00 30 1011.9
20260506104904 26 0.0 0.0 0.00 0.00 0.00 30 1011.9
20260506103904 26 0.0 0.0 0.00 0.00 0.00 30 1012.0
20260506102904 26 0.0 0.0 0.00 0.00 0.00 31 1012.0
20260506101904 26 0.0 0.0 0.00 0.00 0.00 30 1011.9
20260506100905 26 0.0 0.0 0.00 0.00 0.00 32 1012.0
20260506095905 26 0.0 0.0 0.00 0.00 0.00 29 1012.1
20260506094905 26 0.0 0.0 0.00 0.00 0.00 31 1012.3
20260506093905 26 0.0 0.0 0.00 0.00 0.00 31 1012.2
20260506092905 26 0.0 0.0 0.00 0.00 0.00 31 1012.2
20260506091904 26 0.0 0.0 0.00 0.00 0.00 31 1012.2
20260506090910 26 0.0 0.0 0.00 0.00 0.00 32 1012.1
20260506085904 26 0.0 0.0 0.00 0.00 0.00 30 1012.1
20260506084905 26 0.0 0.0 0.00 0.00 0.00 29 1011.9
20260506083904 25 0.0 0.0 0.00 0.00 0.00 33 1012.1
20260506082905 26 0.0 0.0 0.00 0.00 0.00 30 1012.0
20260506081904 26 0.0 0.0 0.00 0.00 0.00 31 1012.2
20260506080904 26 0.0 0.0 0.00 0.00 0.00 30 1012.3
20260506072905 27 0.0 0.0 0.00 0.00 0.00 28 1012.4
20260506071904 27 0.0 0.0 0.00 0.00 0.00 29 1012.4
20260506070905 27 0.0 0.0 0.00 0.00 0.00 28 1012.4
20260506061904 26 0.0 0.0 0.00 0.00 0.00 28 1012.6
20260506060905 26 0.0 0.0 0.00 0.00 0.00 28 1012.6
20260506050904 26 0.0 0.0 0.00 0.00 0.00 29 1012.9
20260506044905 26 0.0 0.0 0.00 0.00 0.00 30 1013.1
20260506043904 26 0.0 0.0 0.00 0.00 0.00 30 1013.1
20260506042904 26 0.0 0.0 0.00 0.00 0.00 29 1013.2
20260506041904 26 0.0 0.0 0.00 0.00 0.00 31 1013.1
20260506040904 26 0.0 0.0 0.00 0.00 0.00 30 1013.1
20260506035904 26 0.0 0.0 0.00 0.00 0.00 30 1013.1
20260506034904 26 0.0 0.0 0.00 0.00 0.00 30 1013.1
20260506033904 26 0.0 0.0 0.00 0.00 0.00 30 1013.1
20260506032904 26 0.0 0.0 0.00 0.00 0.00 30 1013.0
20260506031905 26 0.0 0.0 0.00 0.00 0.00 30 1013.0
20260506030904 26 0.0 0.0 0.00 0.00 0.00 31 1013.0
20260506025905 26 0.0 0.0 0.00 0.00 0.00 30 1013.1
20260506024909 26 0.0 0.0 0.00 0.00 0.00 29 1013.2
20260506023904 26 0.0 0.0 0.00 0.00 0.00 29 1013.2
20260506022905 26 0.0 0.0 0.00 0.00 0.00 30 1013.2
20260506021904 26 0.0 0.0 0.00 0.00 0.00 29 1013.2
20260506020904 26 0.0 0.0 0.00 0.00 0.00 28 1013.3
20260506015904 26 0.0 0.0 0.00 0.00 0.00 29 1013.3
20260506014904 26 0.0 0.0 0.00 0.00 0.00 29 1013.4
20260506013904 26 0.0 0.0 0.00 0.00 0.00 29 1013.4
20260506012904 26 0.0 0.0 0.00 0.00 0.00 29 1013.3
20260506011904 26 0.0 0.0 0.00 0.00 0.00 29 1013.2
20260506010904 26 0.0 0.0 0.00 0.00 0.00 28 1013.3
20260506005905 26 0.0 0.0 0.00 0.00 0.00 28 1013.3
20260506004904 26 0.0 0.0 0.00 0.00 0.00 28 1013.2
20260506003904 26 0.0 0.0 0.00 0.00 0.00 29 1013.2
20260506002904 26 0.0 0.0 0.00 0.00 0.00 28 1013.3
20260506001904 26 0.0 0.0 0.00 0.00 0.00 28 1013.2
20260506000904 26 0.0 0.0 0.00 0.00 0.00 28 1013.2
20260505235904 26 0.0 0.0 0.00 0.00 0.00 28 1013.3
20260505234904 27 0.0 0.0 0.00 0.00 0.00 27 1013.2
20260505233904 26 0.0 0.0 0.00 0.00 0.00 27 1012.3
20260505232904 27 0.0 0.0 0.00 0.00 0.00 27 1013.2
20260505231905 27 0.0 0.0 0.00 0.00 0.00 26 1013.2
20260505230904 27 0.0 0.0 0.00 0.00 0.00 27 1013.1
20260505225904 27 0.0 0.0 0.00 0.00 0.00 26 1013.2
20260505224903 27 0.0 0.0 0.00 0.00 0.00 28 1013.1
20260505223904 27 0.0 0.0 0.00 0.00 0.00 27 1013.2
20260505222905 27 0.0 0.0 0.00 0.00 0.00 28 1013.2
20260505221905 27 0.0 0.0 0.00 0.00 0.00 28 1013.2
20260505220904 27 0.0 0.0 0.00 0.00 0.00 27 1013.2
20260505215904 27 0.0 0.0 0.00 0.00 0.00 27 1013.2
20260505214904 27 0.0 0.0 0.00 0.00 0.00 27 1013.2
20260505213904 27 0.0 0.0 0.00 0.00 0.00 27 1013.3
20260505212904 27 0.0 0.0 0.00 0.00 0.00 28 1013.2
20260505211904 27 0.0 0.0 0.00 0.00 0.00 27 1013.2
20260505210904 27 0.0 0.0 0.00 0.00 0.00 30 1013.2
20260505205904 26 0.0 0.0 0.00 0.00 0.00 29 1013.3
20260505204904 26 0.0 0.0 0.00 0.00 0.00 29 1013.2
20260505203904 26 0.0 0.0 0.00 0.00 0.00 30 1013.2
20260505202904 26 0.0 0.0 0.00 0.00 0.00 30 1013.2
20260505201904 26 0.0 0.0 0.00 0.00 0.00 30 1013.2
20260505200904 26 0.0 0.0 0.00 0.00 0.00 31 1013.1
20260505195905 26 0.0 0.0 0.00 0.00 0.00 31 1013.2
20260505194904 26 0.0 0.0 0.00 0.00 0.00 33 1013.2
20260505193904 26 0.0 0.0 0.00 0.00 0.00 33 1013.1
20260505192904 26 0.0 0.0 0.00 0.00 0.00 33 1013.1
20260505191905 26 0.0 0.0 0.00 0.00 0.00 33 1013.0
20260505190904 26 0.0 0.0 0.00 0.00 0.00 33 1013.1
20260505185904 26 0.0 0.0 0.00 0.00 0.00 33 1013.0
20260505184906 26 0.0 0.0 0.00 0.00 0.00 33 1013.0
20260505183904 26 0.0 0.0 0.00 0.00 0.00 32 1013.0
20260505182905 26 0.0 0.0 0.00 0.00 0.00 31 1013.0
20260505181909 26 0.0 0.0 0.00 0.00 0.00 31 1012.9
20260505180905 27 0.0 0.0 0.00 0.00 0.00 30 1013.0
20260505175904 27 0.0 0.0 0.00 0.00 0.00 29 1013.0
20260505174904 27 0.0 0.0 0.00 0.00 0.00 29 1012.8
20260505173904 27 0.0 0.0 0.00 0.00 0.00 29 1012.9
20260505172904 27 0.0 0.0 0.00 0.00 0.00 29 1012.9
20260505171904 27 0.0 0.0 0.00 0.00 0.00 29 1013.0
20260505170904 26 0.0 0.0 0.00 0.00 0.00 29 1012.9
20260505165904 26 0.0 0.0 0.00 0.00 0.00 29 1012.9
20260505164905 26 0.0 0.0 0.00 0.00 0.00 28 1012.9
20260505163904 26 0.0 0.0 0.00 0.00 0.00 28 1013.0
20260505162904 26 0.0 0.0 0.00 0.00 0.00 27 1013.2
20260505161904 26 0.0 0.0 0.00 0.00 0.00 27 1013.3
20260505160904 26 0.0 0.0 0.00 0.00 0.00 26 1013.4
20260505152905 26 0.0 0.0 0.00 0.00 0.00 26 1013.6
20260505151905 27 0.0 0.0 0.00 0.00 0.00 24 1013.7
20260505150904 27 0.0 0.0 0.00 0.00 0.00 24 1013.8